Flag for Greece Weather past 2 weeks in Chania, Crete, Greece

Now
63 °F

Passing clouds.


Feels Like: 63 °F
Forecast: 60 / 74 °F
Wind: 13 mph from West

Location: Souda Airport


UV Index: 7 (High)

Visibility: N/A


Pressure: 29.83 "Hg

Humidity: 73%

Dew point: 54 °F

Location of ChaniaLocation

Historic Weather in Chania

°F

Chania temperature yesterday

Maximum temperature yesterday: 86 °F (at 1:50 PM)
Minimum temperature yesterday: 64 °F (at 7:20 AM)
Average temperature yesterday: 77 °F

Past Weeks' High & Low Weather Summary

 TemperatureHumidityPressure
High88 °F (Apr 22, 11:50 AM)100% (Apr 17, 1:50 PM)30.09 "Hg (Apr 17, 1:50 PM)
Low50 °F (Apr 13, 6:50 AM)16% (Apr 23, 5:50 PM)29.71 "Hg (Apr 18, 5:50 AM)
Average63 °F62%29.92 "Hg
* Reported Apr 9 8:20 PM — Apr 24 8:50 PM, Chania, Weather by CustomWeather, © 2014

Note: Actual official high and low records may vary slightly from our data, if they occured in-between our weather recording intervals... More about our weather records

Advertising

Historic Weather Conditions — Data for Previous 24 hours

 ConditionsComfort  
Time TempWeatherWind HumidityBarometerVisibility
8:50 PM
Apr 24
63 °FPartly sunny.20 mph73%29.83 "HgN/A
8:20 PM64 °FPartly sunny.17 mph73%29.83 "HgN/A
7:50 PM64 °FPartly sunny.14 mph73%29.83 "HgN/A
7:20 PM64 °FPartly sunny.14 mph73%29.83 "HgN/A
6:50 PM66 °FPartly sunny.17 mph68%29.83 "HgN/A
6:20 PM66 °FPartly sunny.17 mph68%29.83 "HgN/A
5:50 PM68 °FPartly sunny.12 mph64%29.83 "HgN/A
5:20 PM70 °FPartly sunny.17 mph57%29.83 "HgN/A
4:50 PM70 °FPartly sunny.17 mph57%29.83 "HgN/A
4:20 PM70 °FPartly sunny.16 mph57%29.83 "HgN/A
3:50 PM70 °FPartly sunny.16 mph57%29.83 "HgN/A
3:20 PM72 °FPartly sunny.16 mph57%29.86 "HgN/A
2:50 PM72 °FPartly sunny.16 mph57%29.86 "HgN/A
2:20 PM72 °FPartly sunny.15 mph57%29.86 "HgN/A
1:50 PM72 °FPartly sunny.17 mph57%29.86 "HgN/A
1:20 PM70 °FPartly sunny.17 mph57%29.86 "HgN/A
12:50 PM70 °FPartly sunny.16 mph57%29.86 "HgN/A
12:20 PM70 °FPartly sunny.17 mph60%29.86 "HgN/A
11:50 AM70 °FScattered clouds.17 mph60%29.86 "HgN/A
11:20 AM68 °FPassing clouds.17 mph64%29.86 "HgN/A
10:50 AM68 °FPassing clouds.16 mph64%29.86 "HgN/A
10:20 AM64 °FPassing clouds.15 mph78%29.86 "HgN/A
9:50 AM64 °FPassing clouds.16 mph78%29.86 "Hg6 mi
9:20 AM63 °FPassing clouds.17 mph83%29.86 "Hg5 mi
8:50 AM63 °FPassing clouds.15 mph83%29.86 "Hg5 mi
8:20 AM63 °FPassing clouds.14 mph100%29.83 "Hg5 mi
7:50 AM63 °FPassing clouds.9 mph100%29.83 "Hg5 mi
7:20 AM61 °FPassing clouds.13 mph100%29.83 "Hg5 mi
6:50 AM61 °FPassing clouds.15 mph100%29.83 "Hg4 mi
6:20 AM61 °FPassing clouds.10 mph100%29.83 "HgN/A
5:50 AM63 °FPartly cloudy.13 mph100%29.83 "HgN/A
5:20 AM63 °FPartly cloudy.10 mph100%29.80 "HgN/A
4:50 AM64 °FPartly cloudy.12 mph100%29.80 "HgN/A
4:20 AM68 °FPartly cloudy.7 mph49%29.80 "HgN/A
3:50 AM68 °FPartly cloudy.7 mph49%29.80 "HgN/A
3:20 AM70 °FPartly cloudy.5 mph46%29.80 "HgN/A
2:50 AM70 °FPartly cloudy.7 mph46%29.80 "HgN/A
2:20 AM72 °FPassing clouds.15 mph29%29.80 "HgN/A
1:50 AM72 °FPassing clouds.15 mph29%29.80 "HgN/A
1:20 AM75 °FPassing clouds.17 mph24%29.83 "HgN/A
12:50 AM75 °FPassing clouds.17 mph24%29.83 "HgN/A
12:20 AM77 °FPassing clouds.17 mph22%29.83 "HgN/A
11:50 PM
Apr 23
77 °FPassing clouds.18 mph22%29.83 "HgN/A
11:20 PM79 °FPartly cloudy.22 mph24%29.83 "HgN/A
10:50 PM79 °FPartly cloudy.17 mph24%29.83 "HgN/A
10:20 PM79 °FPartly cloudy.13 mph16%29.83 "HgN/A
Weather by CustomWeather, © 2014

See weather overview